Cloud_Cover
0 0 0 3 3 42 16 53 48 8 0 0 0 1 0 0 2 0 0 5 5 2
5 2 0 0 5 0 0 12 0 0 0 0 0 0 0 0 0 2 2 0 3 10
84 6 3 0 0 2 10 2 5 0 0 0 0 0 0 0 5 0 4 17 12 5
98 100 85 20 2 0 0 0 0 0 0 0 0 0 0 0 1 5 1 15 5 5
19 100 100 100 99 69 100 53 0 0 0 0 0 0 0 0 0 0 11 3 5 5
9 70 91 100 100 100 100 100 98 12 0 16 41 8 0 0 0 0 0 2 5 6
7 5 6 84 99 100 96 20 15 5 52 8 8 82 38 26 0 0 0 2 5 14
5 9 7 95 50 92 89 35 19 10 8 10 95 32 8 20 3 1 2 5 79 5
28 9 18 7 96 99 95 100 52 79 100 98 6 6 0 0 25 0 0 0 3 0
46 42 90 40 78 84 100 100 100 100 100 100 100 100 78 49 84 14 0 0 60 50
18 45 33 59 4 49 100 100 100 100 100 100 100 100 100 100 28 99 19 0 2 3
14 3 0 5 45 48 100 100 88 100 100 100 100 100 100 100 86 86 92 2 0 0
5 2 0 0 0 5 80 100 100 100 100 100 100 100 100 98 69 43 94 96 2 0
0 4 5 5 4 0 5 5 100 100 100 100 100 100 100 95 18 61 41 92 14 97